.
WxDataArchive / Data Records for 2010-05-20
2010-05-19 May 2010 2010-05-21

Data Records for Thursday, 20 May 2010

Time	Temp	Chill	HIndex	Humid	Dewpt	 Wind 	HiWind	WindDir	Rain 	Barom 
-----	----	-----	------	-----	-----	------	------	-------	-----	----- 
00:00	50.8	50.8	50.8	88	47.4	0	0	---	0.00	30.056 
00:05	50.7	50.7	50.7	88	47.3	0	0	---	0.00	30.056 
00:10	50.5	50.5	50.5	89	47.4	0	0	---	0.00	30.056 
00:15	50.4	50.4	50.4	89	47.3	0	0	---	0.00	30.057 
00:20	50.2	50.2	50.2	89	47.1	0	0	---	0.00	30.057 
00:25	50.1	50.1	50.1	90	47.3	0	0	---	0.00	30.057 
00:30	49.9	49.9	49.9	90	47.1	0	0	---	0.00	30.058 
00:35	49.8	49.8	49.8	90	47.0	0	0	---	0.00	30.058 
00:40	49.6	49.6	49.6	90	46.8	0	0	---	0.00	30.058 
00:45	49.5	49.5	49.5	90	46.7	0	0	---	0.00	30.060 
00:50	49.4	49.4	49.4	90	46.6	0	0	---	0.00	30.060 
00:55	49.2	49.2	49.2	91	46.7	0	0	---	0.00	30.060 
01:00	49.2	49.2	49.2	91	46.7	0	0	---	0.00	30.061 
01:05	49.1	49.1	49.1	91	46.6	0	0	---	0.00	30.061 
01:10	48.9	48.9	48.9	91	46.4	0	0	---	0.00	30.061 
01:15	48.8	48.8	48.8	91	46.3	0	0	---	0.00	30.059 
01:20	48.6	48.6	48.6	91	46.1	0	0	---	0.00	30.059 
01:25	48.5	48.5	48.5	92	46.3	0	0	---	0.00	30.059 
01:30	48.5	48.5	48.5	92	46.3	0	0	---	0.00	30.058 
01:35	48.3	48.3	48.3	92	46.1	0	0	---	0.00	30.058 
01:40	48.2	48.2	48.2	92	46.0	0	0	---	0.00	30.058 
01:45	48.0	48.0	48.0	92	45.8	0	0	---	0.00	30.056 
01:50	48.0	48.0	48.0	92	45.8	0	0	---	0.00	30.056 
01:55	47.9	47.9	47.9	92	45.7	0	0	---	0.00	30.056 
02:00	47.7	47.7	47.7	92	45.5	0	0	---	0.00	30.054 
02:05	47.6	47.6	47.6	92	45.4	0	0	---	0.00	30.054 
02:10	47.6	47.6	47.6	92	45.4	0	0	---	0.00	30.054 
02:15	47.4	47.4	47.4	93	45.5	0	0	---	0.00	30.055 
02:20	47.3	47.3	47.3	93	45.4	0	0	---	0.00	30.055 
02:25	47.3	47.3	47.3	93	45.4	0	0	---	0.00	30.055 
02:30	47.1	47.1	47.1	93	45.2	0	0	---	0.00	30.051 
02:35	47.0	47.0	47.0	93	45.1	0	0	---	0.00	30.051 
02:40	46.8	46.8	46.8	93	44.9	0	0	---	0.00	30.051 
02:45	46.8	46.8	46.8	93	44.9	0	0	---	0.00	30.051 
02:50	46.7	46.7	46.7	93	44.8	0	0	---	0.00	30.051 
02:55	46.7	46.7	46.7	93	44.8	0	0	---	0.00	30.051 
03:00	46.5	46.5	46.5	93	44.6	0	0	---	0.00	30.053 
03:05	46.5	46.5	46.5	93	44.6	0	0	---	0.00	30.053 
03:10	46.5	46.5	46.5	93	44.6	0	0	---	0.00	30.053 
03:15	46.4	46.4	46.4	94	44.8	0	0	---	0.00	30.053 
03:20	46.4	46.4	46.4	94	44.8	0	0	---	0.00	30.053 
03:25	46.2	46.2	46.2	94	44.6	0	0	---	0.00	30.053 
03:30	46.2	46.2	46.2	94	44.6	0	0	---	0.00	30.055 
03:35	46.1	46.1	46.1	94	44.5	0	0	---	0.00	30.055 
03:40	46.0	46.0	46.0	94	44.4	0	0	---	0.00	30.055 
03:45	46.0	46.0	46.0	94	44.4	0	0	---	0.00	30.052 
03:50	45.8	45.8	45.8	94	44.2	0	0	---	0.00	30.052 
03:55	45.8	45.8	45.8	94	44.2	0	0	---	0.00	30.052 
04:00	45.7	45.7	45.7	94	44.1	0	0	---	0.00	30.053 
04:05	45.7	45.7	45.7	94	44.1	0	0	---	0.00	30.053 
04:10	45.5	45.5	45.5	94	43.9	0	0	---	0.00	30.053 
04:15	45.5	45.5	45.5	94	43.9	0	0	---	0.00	30.050 
04:20	45.4	45.4	45.4	94	43.8	0	0	---	0.00	30.050 
04:25	45.2	45.2	45.2	94	43.6	0	0	---	0.00	30.050 
04:30	45.2	45.2	45.2	94	43.6	0	0	---	0.00	30.055 
04:35	45.1	45.1	45.1	94	43.5	0	0	---	0.00	30.055 
04:40	45.1	45.1	45.1	94	43.5	0	0	---	0.00	30.055 
04:45	44.9	44.9	44.9	94	43.3	0	0	---	0.00	30.056 
04:50	44.9	44.9	44.9	94	43.3	0	0	---	0.00	30.056 
04:55	44.8	44.8	44.8	94	43.2	0	0	---	0.00	30.056 
05:00	44.8	44.8	44.8	94	43.2	0	0	---	0.00	30.061 
05:05	44.8	44.8	44.8	95	43.5	0	0	---	0.00	30.061 
05:10	44.8	44.8	44.8	94	43.2	0	0	---	0.00	30.061 
05:15	44.6	44.6	44.6	95	43.3	0	0	---	0.00	30.062 
05:20	44.6	44.6	44.6	95	43.3	0	0	---	0.00	30.062 
05:25	44.6	44.6	44.6	95	43.3	0	0	---	0.00	30.062 
05:30	44.6	44.6	44.6	95	43.3	0	0	---	0.00	30.062 
05:35	44.5	44.5	44.5	95	43.2	0	0	---	0.00	30.062 
05:40	44.5	44.5	44.5	95	43.2	0	0	---	0.00	30.062 
05:45	44.3	44.3	44.3	95	43.0	0	0	---	0.00	30.063 
05:50	44.3	44.3	44.3	95	43.0	0	0	---	0.00	30.063 
05:55	44.2	44.2	44.2	95	42.9	0	0	---	0.00	30.063 
06:00	44.2	44.2	44.2	95	42.9	0	0	---	0.00	30.062 
06:05	44.1	44.1	44.1	95	42.8	0	0	---	0.00	30.062 
06:10	44.1	44.1	44.1	95	42.8	0	0	---	0.00	30.062 
06:15	43.9	43.9	43.9	95	42.6	0	0	---	0.00	30.065 
06:20	43.9	43.9	43.9	95	42.6	0	0	---	0.00	30.065 
06:25	43.9	43.9	43.9	95	42.6	0	0	---	0.00	30.065 
06:30	43.9	43.9	43.9	95	42.6	0	0	---	0.00	30.074 
06:35	43.8	43.8	43.8	95	42.5	0	0	---	0.00	30.074 
06:40	43.8	43.8	43.8	95	42.5	0	0	---	0.00	30.074 
06:45	43.9	43.9	43.9	95	42.6	0	0	---	0.00	30.076 
06:50	44.1	44.1	44.1	95	42.8	0	0	---	0.00	30.076 
06:55	44.2	44.2	44.2	95	42.9	0	0	---	0.00	30.076 
07:00	44.5	44.5	44.5	95	43.2	0	0	---	0.00	30.075 
07:05	44.8	44.8	44.8	95	43.5	0	0	---	0.00	30.075 
07:10	45.2	45.2	45.2	96	44.1	0	0	---	0.00	30.075 
07:15	45.8	45.8	45.8	96	44.7	0	0	---	0.00	30.084 
07:20	46.5	46.5	46.5	96	45.4	0	0	---	0.00	30.084 
07:25	47.4	47.4	47.4	96	46.3	0	0	---	0.00	30.084 
07:30	48.6	48.6	48.6	96	47.5	0	0	---	0.00	30.086 
07:35	49.5	49.5	49.5	96	48.4	0	0	---	0.00	30.086 
07:40	49.8	49.8	49.8	96	48.7	0	0	---	0.00	30.086 
07:45	50.1	50.1	50.1	96	49.0	0	0	---	0.00	30.088 
07:50	50.5	50.5	50.5	96	49.4	0	0	---	0.00	30.088 
07:55	51.1	51.1	51.1	96	50.0	0	0	---	0.00	30.088 
08:00	51.6	51.6	51.6	96	50.5	0	0	---	0.00	30.089 
08:05	52.2	52.2	52.2	96	51.1	0	0	---	0.00	30.089 
08:10	52.6	52.6	52.6	96	51.5	0	0	---	0.00	30.089 
08:15	53.3	53.3	53.3	96	52.2	0	0	---	0.00	30.102 
08:20	54.1	54.1	54.1	96	53.0	0	0	---	0.00	30.102 
08:25	55.0	55.0	55.0	96	53.9	0	0	---	0.00	30.102 
08:30	56.3	56.3	56.3	95	54.9	0	0	---	0.00	30.099 
08:35	57.8	57.8	57.8	93	55.8	0	0	---	0.00	30.099 
08:40	58.7	58.7	58.7	87	54.8	0	0	---	0.00	30.099 
08:45	59.5	59.5	59.5	83	54.3	0	0	---	0.00	30.098 
08:50	60.5	60.5	60.5	79	54.0	0	0	---	0.00	30.098 
08:55	61.5	61.5	61.5	76	53.9	0	0	---	0.00	30.098 
09:00	62.4	62.4	62.4	72	53.2	0	0	---	0.00	30.096 
09:05	63.7	63.7	63.7	72	54.5	0	0	---	0.00	30.096 
09:10	64.3	64.3	64.3	69	53.9	0	1	90	0.00	30.096 
09:15	65.2	65.2	65.2	66	53.5	0	1	90	0.00	30.098 
09:20	65.8	65.8	65.8	64	53.3	0	1	90	0.00	30.098 
09:25	66.3	66.3	66.3	64	53.7	0	1	90	0.00	30.098 
09:30	66.6	66.6	66.6	63	53.6	0	1	90	0.00	30.096 
09:35	67.1	67.1	67.1	62	53.6	0	1	90	0.00	30.096 
09:40	67.4	67.4	67.4	63	54.4	0	1	90	0.00	30.096 
09:45	67.8	67.8	67.8	61	53.9	0	1	90	0.00	30.096 
09:50	68.3	68.3	68.3	59	53.4	0	1	90	0.00	30.096 
09:55	68.4	68.4	68.4	62	54.9	0	1	90	0.00	30.096 
10:00	68.4	68.4	68.4	61	54.4	0	1	90	0.00	30.095 
10:05	68.8	68.8	68.8	59	53.9	0	1	90	0.00	30.095 
10:10	69.1	69.1	69.1	60	54.6	0	4	90	0.00	30.095 
10:15	69.1	69.1	69.1	59	54.2	1	4	90	0.00	30.095 
10:20	69.3	69.3	69.3	59	54.3	1	3	90	0.00	30.095 
10:25	69.3	69.3	69.3	61	55.3	0	2	90	0.00	30.095 
10:30	69.6	69.6	69.6	57	53.7	0	1	90	0.00	30.097 
10:35	69.9	69.9	69.9	59	54.9	1	3	90	0.00	30.097 
10:40	69.9	69.9	69.9	57	54.0	0	2	90	0.00	30.097 
10:45	69.8	69.8	69.8	57	53.9	1	4	90	0.00	30.096 
10:50	69.9	69.9	69.9	58	54.4	1	4	90	0.00	30.096 
10:55	69.9	69.9	69.9	55	53.0	2	3	112	0.00	30.096 
11:00	70.4	70.4	70.4	55	53.4	0	2	112	0.00	30.098 
11:05	71.1	71.1	71.1	55	54.1	0	2	112	0.00	30.098 
11:10	71.6	71.6	71.6	51	52.5	1	2	112	0.00	30.098 
11:15	71.5	71.5	71.5	56	55.0	1	4	112	0.00	30.101 
11:20	71.6	71.6	71.6	54	54.1	0	2	68	0.00	30.101 
11:25	71.6	71.6	71.6	54	54.1	1	3	90	0.00	30.101 
11:30	71.8	71.8	71.8	50	52.1	1	3	158	0.00	30.098 
11:35	71.8	71.8	71.8	52	53.2	1	5	90	0.00	30.098 
11:40	71.8	71.8	71.8	49	51.6	1	3	68	0.00	30.098 
11:45	72.3	72.3	72.3	51	53.1	1	3	68	0.00	30.097 
11:50	72.8	72.8	72.8	50	53.1	1	3	68	0.00	30.097 
11:55	73.2	73.2	73.2	53	55.0	1	5	112	0.00	30.097 
12:00	72.8	72.8	72.8	46	50.8	1	4	112	0.00	30.102 
12:05	73.3	73.3	73.3	50	53.5	1	3	112	0.00	30.102 
12:10	73.5	73.5	73.5	47	52.0	1	4	112	0.00	30.102 
12:15	73.7	73.7	73.7	46	51.6	1	3	112	0.00	30.106 
12:20	73.9	73.9	73.9	46	51.8	2	4	90	0.00	30.106 
12:25	74.4	74.4	74.4	48	53.4	0	1	112	0.00	30.106 
12:30	74.7	74.7	74.7	43	50.7	1	4	135	0.00	30.104 
12:35	75.3	75.3	77.7	45	52.5	1	3	135	0.00	30.104 
12:40	75.4	75.4	77.6	39	48.7	1	3	112	0.00	30.104 
12:45	75.4	75.4	77.5	37	47.3	2	5	112	0.00	30.099 
12:50	75.4	75.4	77.6	39	48.7	1	4	45	0.00	30.099 
12:55	75.3	75.3	77.6	40	49.3	2	4	112	0.00	30.099 
13:00	74.9	74.9	74.9	42	50.2	2	5	90	0.00	30.097 
13:05	74.7	74.7	74.7	37	46.7	2	3	90	0.00	30.097 
13:10	74.7	74.7	74.7	38	47.4	1	5	90	0.00	30.097 
13:15	75.1	75.1	77.4	38	47.7	2	5	90	0.00	30.101 
13:20	75.4	75.4	77.5	37	47.3	2	5	112	0.00	30.101 
13:25	75.8	75.8	77.6	37	47.7	2	4	90	0.00	30.101 
13:30	76.0	76.0	77.7	38	48.5	2	6	112	0.00	30.095 
13:35	76.3	76.3	77.8	38	48.8	2	4	112	0.00	30.095 
13:40	76.3	76.3	77.8	37	48.1	2	5	112	0.00	30.095 
13:45	76.3	76.3	77.9	39	49.5	1	4	90	0.00	30.095 
13:50	76.5	76.5	77.9	38	49.0	2	5	112	0.00	30.095 
13:55	76.5	76.5	77.9	38	49.0	2	4	68	0.00	30.095 
14:00	76.5	76.5	78.0	40	50.4	2	5	90	0.00	30.094 
14:05	76.7	76.7	78.1	39	49.9	2	5	90	0.00	30.094 
14:10	76.8	76.8	78.0	38	49.2	1	4	90	0.00	30.094 
14:15	77.2	77.2	78.2	38	49.6	2	5	90	0.00	30.087 
14:20	77.2	77.2	78.1	36	48.2	2	7	112	0.00	30.087 
14:25	77.0	77.0	78.0	36	48.0	2	7	112	0.00	30.087 
14:30	76.8	76.8	78.1	39	49.9	2	6	112	0.00	30.081 
14:35	76.5	76.5	77.8	35	46.8	2	5	112	0.00	30.081 
14:40	76.3	76.3	77.8	37	48.1	2	5	90	0.00	30.081 
14:45	76.3	76.3	77.9	39	49.5	2	6	112	0.00	30.084 
14:50	76.5	76.5	77.9	37	48.3	1	4	112	0.00	30.084 
14:55	76.8	76.8	77.9	36	47.8	1	4	90	0.00	30.084 
15:00	77.4	77.4	78.2	36	48.3	1	4	112	0.00	30.079 
15:05	77.6	77.6	78.4	38	50.0	2	5	112	0.00	30.079 
15:10	77.7	77.7	78.3	35	47.8	2	4	112	0.00	30.079 
15:15	77.9	77.9	78.6	38	50.2	1	3	112	0.00	30.076 
15:20	77.7	77.7	78.3	35	47.8	2	6	112	0.00	30.076 
15:25	77.4	77.4	78.2	36	48.3	2	7	112	0.00	30.076 
15:30	77.4	77.4	78.1	35	47.6	2	4	112	0.00	30.072 
15:35	77.2	77.2	78.1	36	48.2	1	3	112	0.00	30.072 
15:40	77.4	77.4	78.3	37	49.1	1	3	135	0.00	30.072 
15:45	77.6	77.6	78.5	39	50.7	2	5	112	0.00	30.066 
15:50	77.4	77.4	78.4	39	50.5	1	3	90	0.00	30.066 
15:55	77.4	77.4	78.3	38	49.8	1	4	90	0.00	30.066 
16:00	76.8	76.8	78.0	38	49.2	3	6	112	0.00	30.065 
16:05	76.5	76.5	77.9	37	48.3	2	4	112	0.00	30.065 
16:10	76.5	76.5	78.0	39	49.7	1	5	112	0.00	30.065 
16:15	77.0	77.0	78.2	40	50.8	1	4	112	0.00	30.059 
16:20	77.2	77.2	78.2	38	49.6	2	6	112	0.00	30.059 
16:25	77.2	77.2	78.2	37	48.9	2	4	90	0.00	30.059 
16:30	76.8	76.8	78.1	39	49.9	2	5	112	0.00	30.054 
16:35	76.5	76.5	77.9	38	49.0	1	6	112	0.00	30.054 
16:40	76.3	76.3	77.8	37	48.1	1	5	112	0.00	30.054 
16:45	76.3	76.3	77.7	36	47.4	3	9	112	0.00	30.053 
16:50	76.3	76.3	77.7	35	46.6	3	10	112	0.00	30.053 
16:55	76.3	76.3	77.9	39	49.5	3	7	112	0.00	30.053 
17:00	76.5	76.5	77.8	35	46.8	2	4	112	0.00	30.051 
17:05	76.5	76.5	77.8	36	47.5	2	5	112	0.00	30.051 
17:10	76.5	76.5	77.8	36	47.5	2	7	112	0.00	30.051 
17:15	76.5	76.5	77.8	36	47.5	2	5	112	0.00	30.051 
17:20	76.3	76.3	77.7	36	47.4	2	7	112	0.00	30.051 
17:25	76.5	76.5	77.9	37	48.3	2	5	112	0.00	30.051 
17:30	76.7	76.7	78.0	38	49.2	2	4	112	0.00	30.045 
17:35	76.8	76.8	78.0	37	48.5	3	6	112	0.00	30.045 
17:40	76.8	76.8	77.9	35	47.1	2	4	112	0.00	30.045 
17:45	76.8	76.8	78.0	37	48.5	2	7	90	0.00	30.042 
17:50	76.8	76.8	77.8	34	46.3	2	6	112	0.00	30.042 
17:55	76.8	76.8	78.0	37	48.5	2	4	90	0.00	30.042 
18:00	76.7	76.7	77.9	36	47.7	2	6	90	0.00	30.043 
18:05	76.5	76.5	77.7	34	46.0	2	6	90	0.00	30.043 
18:10	76.1	76.1	77.7	36	47.2	3	10	112	0.00	30.043 
18:15	75.8	75.8	77.6	37	47.7	2	6	112	0.00	30.039 
18:20	75.6	75.6	77.6	37	47.5	3	6	90	0.00	30.039 
18:25	75.3	75.3	77.5	37	47.2	2	6	112	0.00	30.039 
18:30	75.1	75.1	77.5	39	48.4	1	5	112	0.00	30.036 
18:35	75.1	75.1	77.5	39	48.4	1	3	90	0.00	30.036 
18:40	74.9	74.9	74.9	41	49.6	1	5	68	0.00	30.036 
18:45	74.7	74.7	74.7	41	49.4	1	6	112	0.00	30.032 
18:50	74.6	74.6	74.6	39	48.0	2	5	112	0.00	30.032 
18:55	74.6	74.6	74.6	40	48.7	1	3	135	0.00	30.032 
19:00	74.4	74.4	74.4	39	47.8	1	3	135	0.00	30.026 
19:05	74.4	74.4	74.4	41	49.1	0	2	135	0.00	30.026 
19:10	74.4	74.4	74.4	41	49.1	1	3	135	0.00	30.026 
19:15	74.2	74.2	74.2	43	50.2	0	1	135	0.00	30.017 
19:20	74.0	74.0	74.0	41	48.8	0	2	135	0.00	30.017 
19:25	73.9	73.9	73.9	41	48.7	1	4	135	0.00	30.017 
19:30	73.9	73.9	73.9	41	48.7	0	2	90	0.00	30.020 
19:35	73.7	73.7	73.7	42	49.2	1	2	90	0.00	30.020 
19:40	73.5	73.5	73.5	41	48.3	0	2	90	0.00	30.020 
19:45	73.3	73.3	73.3	42	48.8	0	2	90	0.00	30.025 
19:50	73.2	73.2	73.2	42	48.7	0	2	90	0.00	30.025 
19:55	73.0	73.0	73.0	43	49.2	1	2	90	0.00	30.025 
20:00	73.0	73.0	73.0	43	49.2	0	2	90	0.00	30.027 
20:05	72.8	72.8	72.8	43	49.0	0	1	90	0.00	30.027 
20:10	72.7	72.7	72.7	44	49.5	0	0	---	0.00	30.027 
20:15	72.5	72.5	72.5	46	50.5	0	1	90	0.00	30.024 
20:20	72.3	72.3	72.3	46	50.3	0	0	---	0.00	30.024 
20:25	72.0	72.0	72.0	47	50.7	0	0	---	0.00	30.024 
20:30	71.8	71.8	71.8	48	51.0	0	0	---	0.00	30.024 
20:35	71.5	71.5	71.5	49	51.3	0	0	---	0.00	30.024 
20:40	71.1	71.1	71.1	50	51.5	0	0	---	0.00	30.024 
20:45	70.9	70.9	70.9	50	51.3	0	0	---	0.00	30.024 
20:50	70.8	70.8	70.8	51	51.8	0	0	---	0.00	30.024 
20:55	70.4	70.4	70.4	52	51.9	0	0	---	0.00	30.024 
21:00	70.3	70.3	70.3	52	51.8	0	1	90	0.00	30.021 
21:05	70.1	70.1	70.1	53	52.2	0	2	90	0.00	30.021 
21:10	69.8	69.8	69.8	53	51.9	0	0	---	0.00	30.021 
21:15	69.6	69.6	69.6	54	52.2	0	1	90	0.00	30.014 
21:20	69.4	69.4	69.4	54	52.0	0	1	90	0.00	30.014 
21:25	69.3	69.3	69.3	54	51.9	0	1	90	0.00	30.014 
21:30	69.3	69.3	69.3	55	52.4	0	0	---	0.00	30.015 
21:35	69.1	69.1	69.1	55	52.2	0	0	---	0.00	30.015 
21:40	69.1	69.1	69.1	56	52.7	0	0	---	0.00	30.015 
21:45	68.9	68.9	68.9	59	54.0	0	0	---	0.00	30.028 
21:50	68.4	68.4	68.4	59	53.5	0	1	90	0.00	30.028 
21:55	68.1	68.1	68.1	61	54.1	0	1	90	0.00	30.028 
22:00	67.8	67.8	67.8	63	54.7	0	3	248	0.00	30.040 
22:05	67.3	67.3	67.3	65	55.1	0	2	248	0.00	30.040 
22:10	66.6	66.6	66.6	66	54.9	0	3	248	0.00	30.040 
22:15	66.3	66.3	66.3	67	55.0	0	2	315	0.00	30.055 
22:20	65.8	65.8	65.8	68	54.9	0	3	270	0.00	30.055 
22:25	65.5	65.5	65.5	69	55.1	0	0	---	0.00	30.055 
22:30	65.2	65.2	65.2	71	55.6	0	1	270	0.00	30.056 
22:35	65.0	65.0	65.0	70	55.0	0	1	270	0.00	30.056 
22:40	64.8	64.8	64.8	71	55.2	0	1	270	0.00	30.056 
22:45	64.7	64.7	64.7	69	54.3	0	1	270	0.00	30.055 
22:50	64.7	64.7	64.7	67	53.5	0	2	270	0.00	30.055 
22:55	64.8	64.8	64.8	69	54.4	0	1	135	0.00	30.055 
23:00	64.7	64.7	64.7	69	54.3	0	0	---	0.00	30.046 
23:05	64.7	64.7	64.7	71	55.1	0	0	---	0.00	30.046 
23:10	64.5	64.5	64.5	70	54.5	0	1	135	0.00	30.046 
23:15	64.3	64.3	64.3	71	54.7	0	0	---	0.01	30.039 
23:20	64.2	64.2	64.2	73	55.4	0	1	135	0.00	30.039 
23:25	63.9	63.9	63.9	73	55.1	0	2	135	0.00	30.039 
23:30	63.7	63.7	63.7	74	55.3	0	0	---	0.00	30.028 
23:35	63.5	63.5	63.5	76	55.8	0	0	---	0.00	30.028 
23:40	63.2	63.2	63.2	77	55.9	0	0	---	0.00	30.028 
23:45	62.9	62.9	62.9	77	55.6	0	0	---	0.00	30.024 
23:50	62.9	62.9	62.9	73	54.1	1	4	112	0.00	30.024 
23:55	63.2	63.2	63.2	68	52.5	1	3	135	0.00	30.024 

CoCoRaHS
IN-AL-39
A2 Web Hosting
Creative Commons License
GoDaddy
search engine by freefind advanced

loaded 2018-11-17 12:43:40 • last modified 2010-11-18 10:43:29
Privacy PolicyDisclaimer
• wx.awcolley.com is powered by PmWiki v.2002016 •
• all content (unless otherwise noted) © 2018 A W Colley